CW5020 Weather Reports


Display with metric or nautical units.
time (UTC)temp
F
wind
direction
speed
MPH
gust
MPH
rain 1hr
in
rain 24hr
in
rain mn
in
humidity
%
barometer
mb
20260507012505 47 273 1.0 4.0 0.00 0.00 0.00 47 1014.5
20260507012008 47 273 1.0 4.0 0.00 0.00 0.00 45 1014.6
20260507011508 47 283 1.0 4.0 0.00 0.00 0.00 46 1014.5
20260507011006 48 281 1.0 6.0 0.00 0.00 0.00 46 1014.4
20260507010506 48 275 2.0 8.0 0.00 0.00 0.00 44 1014.3
20260507010008 48 277 3.0 8.0 0.00 0.00 0.00 44 1014.2
20260507005506 48 292 3.0 8.0 0.00 0.00 0.00 45 1014.2
20260507005006 49 288 4.0 14.0 0.00 0.00 0.00 44 1014.2
20260507004007 49 287 4.0 12.0 0.00 0.00 0.00 43 1014.2
20260507003008 50 288 4.0 12.0 0.00 0.00 0.00 43 1014.2
20260507002505 50 275 4.0 13.0 0.00 0.00 0.00 43 1014.1
20260507002006 50 293 3.0 13.0 0.00 0.00 0.00 42 1014.1
20260507001506 51 278 3.0 9.0 0.00 0.00 0.00 44 1014.0
20260507001006 51 268 4.0 12.0 0.00 0.00 0.00 41 1014.0
20260507000505 51 283 4.0 12.0 0.00 0.00 0.00 41 1013.8
20260507000006 51 227 4.0 8.0 0.00 0.00 0.00 42 1013.8
20260506235505 51 289 4.0 11.0 0.00 0.00 0.00 43 1013.7
20260506235006 51 275 4.0 12.0 0.00 0.00 0.00 41 1013.7
20260506234506 52 267 4.0 12.0 0.00 0.00 0.00 42 1013.7
20260506234005 52 277 3.0 13.0 0.00 0.00 0.00 43 1013.6
20260506233505 52 269 3.0 13.0 0.00 0.00 0.00 41 1013.7
20260506233006 52 237 3.0 8.0 0.00 0.00 0.00 44 1013.6
20260506232005 52 267 4.0 14.0 0.00 0.00 0.00 42 1013.5
20260506231505 53 273 4.0 13.0 0.00 0.00 0.00 42 1013.6
20260506231006 54 298 4.0 10.0 0.00 0.00 0.00 41 1013.6
20260506230505 54 283 4.0 12.0 0.00 0.00 0.00 40 1013.4
20260506230008 54 304 3.0 12.0 0.00 0.00 0.00 42 1013.3
20260506225006 54 283 4.0 14.0 0.00 0.00 0.00 42 1013.3
20260506224505 54 265 4.0 14.0 0.00 0.00 0.00 41 1013.4
20260506224005 54 290 3.0 14.0 0.00 0.00 0.00 41 1013.4
20260506223006 54 275 3.0 12.0 0.00 0.00 0.00 42 1013.4
20260506222505 54 215 3.0 12.0 0.00 0.00 0.00 41 1013.3
20260506222007 54 285 4.0 12.0 0.00 0.00 0.00 38 1013.2
20260506221506 54 292 4.0 14.0 0.00 0.00 0.00 40 1013.2
20260506221006 54 278 4.0 14.0 0.00 0.00 0.00 41 1013.2
20260506220505 54 290 4.0 13.0 0.00 0.00 0.00 41 1013.1
20260506220007 55 291 3.0 13.0 0.00 0.00 0.00 42 1013.0
20260506215504 55 286 4.0 11.0 0.00 0.00 0.00 41 1013.0
20260506215006 55 289 4.0 11.0 0.00 0.00 0.00 40 1013.0
20260506214506 56 289 4.0 10.0 0.00 0.00 0.00 39 1012.9
20260506214005 56 244 4.0 9.0 0.00 0.00 0.00 41 1012.8
20260506213505 56 267 4.0 12.0 0.00 0.00 0.00 39 1013.0
20260506213006 56 282 5.0 12.0 0.00 0.00 0.00 42 1012.9
20260506212506 55 287 4.0 12.0 0.00 0.00 0.00 42 1012.8
20260506212005 55 281 4.0 12.0 0.00 0.00 0.00 40 1012.8
20260506211506 56 282 4.0 12.0 0.00 0.00 0.00 40 1012.6
20260506211005 57 223 4.0 11.0 0.00 0.00 0.00 36 1012.7
20260506205505 58 287 3.0 12.0 0.00 0.00 0.00 41 1012.6
20260506205006 58 155 2.0 12.0 0.00 0.00 0.00 35 1012.6
20260506204506 58 237 3.0 10.0 0.00 0.00 0.00 38 1012.6
20260506203506 58 275 4.0 10.0 0.00 0.00 0.00 39 1012.8
20260506203006 58 273 4.0 12.0 0.00 0.00 0.00 35 1012.7
20260506202506 58 277 3.0 12.0 0.00 0.00 0.00 33 1012.7
20260506202006 59 231 3.0 8.0 0.00 0.00 0.00 36 1012.7
20260506201506 59 198 3.0 16.0 0.00 0.00 0.00 37 1013.0
20260506201007 58 198 3.0 16.0 0.00 0.00 0.00 35 1012.9
20260506200505 59 275 3.0 13.0 0.00 0.00 0.00 37 1013.0
20260506200007 58 298 4.0 13.0 0.00 0.00 0.00 35 1013.1
20260506195506 59 244 4.0 11.0 0.00 0.00 0.00 34 1013.2
20260506195007 59 288 3.0 9.0 0.00 0.00 0.00 35 1013.1
20260506194506 58 248 3.0 9.0 0.00 0.00 0.00 36 1013.2
20260506193506 58 213 3.0 10.0 0.00 0.00 0.00 36 1013.2
20260506193007 57 217 3.0 8.0 0.00 0.00 0.00 35 1013.1
20260506192507 57 266 2.0 8.0 0.00 0.00 0.00 38 1013.1
20260506192007 57 137 3.0 8.0 0.00 0.00 0.00 40 1013.1
20260506191506 55 250 3.0 12.0 0.00 0.00 0.00 42 1013.2
20260506191006 55 289 3.0 12.0 0.00 0.00 0.00 37 1013.3
20260506190505 55 284 3.0 13.0 0.00 0.00 0.00 40 1013.3
20260506190006 54 302 4.0 11.0 0.00 0.00 0.00 40 1013.2
20260506185505 55 227 3.0 11.0 0.00 0.00 0.00 40 1013.5
20260506184508 55 202 2.0 11.0 0.00 0.00 0.00 40 1013.4
20260506184007 54 309 3.0 11.0 0.00 0.00 0.00 42 1013.3
20260506183006 54 288 3.0 10.0 0.00 0.00 0.00 42 1013.3
20260506182505 54 257 2.0 8.0 0.00 0.00 0.00 38 1013.2
20260506181505 54 239 2.0 9.0 0.00 0.00 0.00 41 1013.3
20260506180006 54 275 3.0 11.0 0.00 0.01 0.00 41 1013.4
20260506175505 54 277 4.0 11.0 0.00 0.01 0.00 41 1013.3
20260506175006 54 279 3.0 8.0 0.00 0.01 0.00 38 1013.3
20260506174505 54 256 3.0 8.0 0.00 0.01 0.00 38 1013.6
20260506174006 55 302 3.0 8.0 0.00 0.01 0.00 40 1013.7
20260506173506 55 193 3.0 7.0 0.00 0.01 0.00 40 1013.6
20260506173007 54 277 3.0 9.0 0.00 0.01 0.00 42 1013.6
20260506172505 54 246 2.0 9.0 0.00 0.01 0.00 38 1013.7
20260506172006 54 287 2.0 9.0 0.00 0.01 0.00 42 1013.7
20260506171505 54 289 2.0 7.0 0.00 0.01 0.00 40 1013.7
20260506171007 54 223 3.0 10.0 0.00 0.01 0.00 43 1013.8
20260506170008 55 288 3.0 10.0 0.00 0.01 0.00 41 1013.8
20260506165505 54 244 3.0 7.0 0.00 0.01 0.00 43 1013.8
20260506165006 54 302 3.0 10.0 0.00 0.01 0.00 39 1013.8
20260506164507 54 268 3.0 10.0 0.00 0.01 0.00 41 1013.8
20260506164005 54 271 3.0 10.0 0.00 0.01 0.00 40 1013.7
20260506163505 54 281 3.0 8.0 0.00 0.01 0.00 41 1013.8
20260506163009 54 315 2.0 7.0 0.00 0.01 0.00 44 1013.7
20260506162506 53 281 2.0 7.0 0.00 0.01 0.00 43 1013.7
20260506162007 54 279 2.0 9.0 0.00 0.01 0.00 41 1013.8
20260506161507 54 261 2.0 10.0 0.00 0.01 0.00 39 1013.7
20260506160505 53 284 3.0 10.0 0.00 0.01 0.00 42 1013.7
20260506155506 53 282 2.0 7.0 0.00 0.01 0.00 42 1013.7
20260506155006 54 214 2.0 7.0 0.00 0.01 0.00 42 1013.7
20260506154506 54 286 3.0 7.0 0.00 0.01 0.00 43 1013.7
20260506154007 53 240 3.0 10.0 0.00 0.01 0.00 43 1013.7
20260506153506 53 278 2.0 10.0 0.00 0.01 0.00 43 1013.7
20260506153006 52 281 2.0 7.0 0.00 0.01 0.00 43 1013.7
20260506152506 52 205 1.0 4.0 0.00 0.01 0.00 42 1013.7
20260506152005 53 234 2.0 5.0 0.00 0.01 0.00 41 1013.8
20260506151505 53 289 2.0 7.0 0.00 0.01 0.00 40 1013.8
20260506151008 53 291 2.0 8.0 0.00 0.01 0.00 43 1013.8
20260506150008 52 248 2.0 8.0 0.00 0.01 0.00 42 1013.8
20260506145505 52 210 2.0 5.0 0.00 0.02 0.00 40 1013.8
20260506145006 52 268 2.0 5.0 0.00 0.02 0.00 41 1013.7
20260506144506 52 254 2.0 7.0 0.00 0.02 0.00 42 1013.9
20260506143506 52 281 2.0 9.0 0.00 0.02 0.00 45 1013.9
20260506142506 52 284 2.0 8.0 0.00 0.02 0.00 44 1013.9
20260506142008 51 309 1.0 5.0 0.00 0.02 0.00 43 1013.8
20260506141505 51 268 1.0 2.0 0.00 0.02 0.00 45 1013.7
20260506141006 51 261 1.0 3.0 0.00 0.02 0.00 45 1013.8
20260506140506 50 261 1.0 5.0 0.00 0.02 0.00 46 1013.8
20260506140007 50 290 1.0 5.0 0.00 0.02 0.00 46 1013.7
20260506135505 50 309 1.0 3.0 0.00 0.02 0.00 48 1013.6
20260506134505 49 324 1.0 3.0 0.00 0.02 0.00 51 1013.4
20260506134006 49 345 0.0 2.0 0.00 0.02 0.00 51 1013.2
20260506133505 48 22 0.0 1.0 0.00 0.02 0.00 54 1013.2
20260506133010 48 22 0.0 0.0 0.00 0.02 0.00 58 1013.1
20260506132504 47 22 0.0 0.0 0.00 0.02 0.00 54 1013.2
20260506131505 46 21 0.0 2.0 0.00 0.02 0.00 61 1013.1
20260506131006 46 22 0.0 0.0 0.00 0.02 0.00 62 1013.0
20260506130505 45 19 0.0 0.0 0.00 0.02 0.00 65 1013.1
20260506130006 45 19 0.0 0.0 0.00 0.03 0.00 67 1013.0
20260506125506 44 19 0.0 0.0 0.00 0.03 0.00 70 1013.0
20260506124006 42 19 0.0 1.0 0.00 0.03 0.00 80 1012.7
20260506123506 42 19 0.0 0.0 0.00 0.03 0.00 81 1012.5
20260506123005 41 19 0.0 0.0 0.00 0.03 0.00 80 1012.5
20260506122507 41 19 0.0 0.0 0.00 0.03 0.00 80 1012.4
20260506122006 41 19 0.0 0.0 0.00 0.03 0.00 80 1012.4
20260506121506 40 19 0.0 0.0 0.00 0.03 0.00 81 1012.4
20260506121006 40 19 0.0 0.0 0.00 0.03 0.00 82 1012.2
20260506120504 40 19 0.0 0.0 0.00 0.03 0.00 81 1012.3
20260506120006 39 19 0.0 0.0 0.00 0.03 0.00 81 1012.2
20260506115505 39 19 0.0 0.0 0.00 0.03 0.00 81 1012.2
20260506115005 39 19 0.0 0.0 0.00 0.03 0.00 81 1012.2
20260506114506 39 19 0.0 0.0 0.00 0.03 0.00 81 1012.2
20260506114006 38 19 0.0 0.0 0.00 0.03 0.00 80 1012.2
20260506113505 38 19 0.0 0.0 0.00 0.03 0.00 80 1012.1
20260506113006 38 19 0.0 0.0 0.00 0.03 0.00 80 1012.0
20260506112508 38 19 0.0 0.0 0.00 0.03 0.00 78 1012.1
20260506112007 38 19 0.0 0.0 0.00 0.03 0.00 77 1012.1
20260506111505 38 19 0.0 0.0 0.00 0.03 0.00 77 1012.0
20260506111005 38 19 0.0 0.0 0.00 0.03 0.00 77 1012.0
20260506110006 38 19 0.0 0.0 0.00 0.03 0.00 77 1011.9
20260506105505 39 19 0.0 0.0 0.00 0.03 0.00 77 1011.9
20260506104504 39 19 0.0 0.0 0.00 0.03 0.00 74 1011.8
20260506104007 39 19 0.0 0.0 0.00 0.03 0.00 74 1011.8
20260506103505 39 19 0.0 0.0 0.00 0.03 0.00 73 1011.6
20260506103006 39 19 0.0 0.0 0.00 0.03 0.00 73 1011.5
20260506102505 39 19 0.0 0.0 0.00 0.03 0.00 71 1011.4
20260506101505 39 19 0.0 0.0 0.00 0.03 0.00 72 1011.3
20260506095505 40 19 0.0 0.0 0.00 0.03 0.00 73 1011.5
20260506095005 40 19 0.0 0.0 0.00 0.03 0.00 72 1011.4
20260506094506 40 19 0.0 0.0 0.00 0.03 0.00 72 1011.1
20260506094005 40 19 0.0 0.0 0.00 0.03 0.00 72 1011.2
20260506093505 41 19 0.0 0.0 0.00 0.03 0.00 71 1011.3
20260506093008 41 19 0.0 0.0 0.00 0.03 0.00 72 1011.4
20260506092505 41 19 0.0 0.0 0.00 0.03 0.00 70 1011.2
20260506092005 40 19 0.0 0.0 0.00 0.03 0.00 70 1011.1
20260506091505 40 19 0.0 0.0 0.00 0.03 0.00 71 1011.0
20260506091006 40 19 0.0 0.0 0.00 0.03 0.00 71 1011.1
20260506090504 40 19 0.0 0.0 0.00 0.03 0.00 71 1011.3
20260506090009 40 19 0.0 0.0 0.00 0.03 0.00 71 1011.2
20260506085506 40 19 0.0 0.0 0.00 0.03 0.00 69 1011.5
20260506085005 40 19 0.0 0.0 0.00 0.03 0.00 69 1011.4
20260506084506 41 19 0.0 0.0 0.00 0.03 0.00 67 1011.4
20260506084007 41 19 0.0 0.0 0.00 0.03 0.00 67 1011.1
20260506083506 41 19 0.0 0.0 0.00 0.03 0.00 68 1011.1
20260506082011 42 19 0.0 0.0 0.00 0.03 0.00 64 1011.2
20260506081506 42 19 0.0 0.0 0.00 0.03 0.00 64 1011.1
20260506081006 43 19 0.0 0.0 0.00 0.03 0.00 64 1011.1
20260506080507 43 19 0.0 0.0 0.00 0.03 0.00 62 1011.2
20260506073504 45 19 0.0 1.0 0.00 0.03 0.00 56 1010.9
20260506073006 45 19 0.0 1.0 0.00 0.03 0.00 55 1010.9
20260506072505 45 19 0.0 2.0 0.00 0.03 0.00 55 1010.6
20260506071504 46 15 1.0 3.0 0.00 0.03 0.00 54 1010.6
20260506071005 46 5 1.0 3.0 0.00 0.03 0.00 52 1010.5
20260506070504 46 9 0.0 3.0 0.00 0.03 0.00 52 1010.5
20260506062505 47 33 1.0 4.0 0.00 0.03 0.00 48 1010.6
20260506062006 48 59 1.0 4.0 0.00 0.03 0.00 47 1010.6
20260506061005 48 40 1.0 5.0 0.00 0.03 0.00 47 1010.6
20260506060505 48 34 1.0 5.0 0.00 0.03 0.00 47 1010.6
20260506050514 50 37 0.0 2.0 0.00 0.03 0.00 46 1010.2
20260506045007 50 38 1.0 4.0 0.00 0.03 0.03 45 1010.1
20260506044506 50 51 1.0 4.0 0.00 0.03 0.03 43 1010.1
20260506044006 51 326 0.0 3.0 0.00 0.03 0.03 45 1010.0
20260506043505 51 312 0.0 4.0 0.00 0.03 0.03 44 1010.1
20260506043007 51 22 0.0 4.0 0.00 0.03 0.03 44 1010.3
20260506042005 51 55 1.0 4.0 0.00 0.03 0.03 43 1010.4
20260506041006 51 290 1.0 4.0 0.00 0.03 0.03 45 1010.5
20260506040006 51 40 1.0 4.0 0.00 0.03 0.03 44 1010.4
20260506035506 51 355 1.0 4.0 0.00 0.03 0.03 46 1010.3
20260506035007 50 265 1.0 7.0 0.00 0.03 0.03 48 1010.0
20260506034505 50 57 0.0 7.0 0.00 0.03 0.03 50 1010.1
20260506034005 49 299 0.0 2.0 0.00 0.03 0.03 54 1010.2
20260506033505 49 273 0.0 0.0 0.00 0.03 0.03 59 1010.2
20260506033008 49 273 0.0 0.0 0.00 0.03 0.03 57 1010.0
20260506032007 49 273 0.0 0.0 0.00 0.03 0.03 57 1009.5
20260506031505 49 273 0.0 0.0 0.00 0.03 0.03 55 1009.5
20260506031005 49 273 0.0 0.0 0.00 0.03 0.03 54 1009.5
20260506030505 49 273 0.0 0.0 0.00 0.03 0.03 55 1009.4
20260506025506 50 273 0.0 0.0 0.00 0.05 0.03 54 1009.4
20260506025006 50 273 0.0 0.0 0.00 0.05 0.03 56 1009.5
20260506024507 50 273 0.0 0.0 0.00 0.05 0.03 55 1009.6
20260506023505 50 273 0.0 0.0 0.00 0.05 0.03 54 1009.7
20260506023006 50 273 0.0 0.0 0.00 0.05 0.03 54 1009.7
20260506022507 50 273 0.0 0.0 0.00 0.05 0.03 54 1009.6
20260506022007 51 273 0.0 0.0 0.00 0.05 0.03 51 1009.3
20260506021506 51 273 0.0 0.0 0.00 0.05 0.03 52 1009.3
20260506021006 51 273 0.0 0.0 0.00 0.05 0.03 52 1009.3
20260506020505 51 273 0.0 0.0 0.00 0.05 0.03 51 1009.3
20260506020006 51 273 0.0 0.0 0.00 0.10 0.03 53 1009.1
20260506015505 51 273 0.0 0.0 0.00 0.10 0.03 48 1009.0
20260506015006 52 273 0.0 0.0 0.00 0.10 0.03 48 1008.8
20260506014006 52 273 0.0 0.0 0.00 0.10 0.03 50 1008.8
20260506013507 52 273 0.0 0.0 0.00 0.10 0.03 45 1008.8